User: anonymous   Login
Location: Caltech
(34.1382°N, 118.1253°W)
Time: 04:57:30
(UTC-07:00)
Language:

Cosmos 1025 Rocket - Orbit

View from above orbital plane
View from above orbital plane
View from above satellite
View from above satellite

Ground track
Ground track

The orbit data is extracted from the following two-line orbital elements,

1 10974U 78067B   15181.97710766  .00000142  00000-0  13051-4 0  9999
2 10974 082.4831 128.3571 0017000 194.7935 165.2787 14.87003207   965
Epoch (UTC): 30 June 2015 23:27:02
Eccentricity: 0.0017000
inclination: 82.4831°
perigee height: 595 km
apogee height: 619 km
right ascension of ascending node: 128.3571°
argument of perigee: 194.7935°
revolutions per day: 14.87003207
mean anomaly at epoch: 165.2787°
orbit number at epoch: 96

The dashed part of the orbit path shows where the satellite is in the earth's shadow,  

DLR